DateTimeUTC,F1_A11,F1_S11,BsB_S11,BsG_S11,BsR_S11,BbsB_S11,BbsG_S11,BbsR_S11,BaB_A11,BaG_A11,BaR_A11,Tu_S11,T_S11,Uu_S11,U_S11,P_S11,T1_A11
2021-08-17T07:00:00Z,00000200,20000000,,,,,,,-000.18,-000.17,0000.21,18.4,25.0,07.5,05.0,0676.1,30.9
2021-08-17T07:01:00Z,00000200,20000000,,,,,,,0000.01,-000.26,-000.08,18.4,25.0,07.5,05.0,0676.1,30.9
2021-08-17T07:02:00Z,00000200,20000000,,,,,,,0000.25,0000.23,-000.01,18.4,25.0,07.5,05.0,0676.1,30.9
2021-08-17T07:03:00Z,00000200,60000000,,,,,,,0000.02,0000.03,0000.07,18.4,25.0,07.5,05.0,0676.1,30.9
2021-08-17T07:04:00Z,00000200,40000000,0000.89,0000.80,0000.41,0000.52,-000.10,0000.06,-000.03,-000.11,0000.14,18.5,24.9,07.6,05.1,0677.0,30.9
2021-08-17T07:05:00Z,00000200,00000000,0001.21,0000.10,0000.17,0000.43,0000.08,0000.33,0000.69,0000.67,0000.12,18.6,24.8,07.6,05.2,0677.1,30.9
2021-08-17T07:06:00Z,00000200,00000000,0001.68,0000.23,0000.30,0000.57,0000.18,0000.31,-000.16,0000.10,0000.24,18.6,24.8,07.6,05.2,0677.1,30.9
2021-08-17T07:07:00Z,00000200,00000000,0001.52,0000.29,0000.33,-000.03,-000.15,0000.19,0000.19,-000.07,-000.14,18.6,24.8,07.6,05.2,0677.1,30.9
2021-08-17T07:08:00Z,00000200,00000000,0000.83,0000.63,0000.12,-000.27,0000.27,-000.02,0000.08,0000.07,0000.09,18.5,24.8,07.6,05.2,0677.1,30.9
2021-08-17T07:09:00Z,00000200,00000000,0002.20,0000.54,0000.62,0000.49,-000.02,0000.35,0000.39,0000.33,0000.48,18.5,24.8,07.7,05.3,0677.1,30.9
2021-08-17T07:10:00Z,00000200,00000000,0001.86,0000.62,0000.32,0000.33,0000.04,-000.03,-000.08,-000.10,-000.15,18.5,24.8,07.7,05.2,0677.1,30.9
2021-08-17T07:11:00Z,00000200,00000000,0001.49,0000.37,0000.49,0000.04,0000.05,0000.13,0000.17,0000.38,0000.27,18.6,24.8,07.6,05.2,0677.1,30.9
2021-08-17T07:12:00Z,00000200,00000000,0001.31,0000.25,0000.49,0000.45,0000.23,0000.02,-000.04,-000.28,0000.09,18.6,24.8,07.5,05.2,0677.2,30.9
2021-08-17T07:13:00Z,00000200,00000000,0000.89,0000.82,0000.37,0000.64,0000.33,0000.16,0000.70,0000.16,0000.09,18.6,24.8,07.6,05.2,0677.2,30.9
2021-08-17T07:14:00Z,00000200,00000000,0000.98,0000.18,0000.21,-000.41,0000.47,0000.42,0000.09,0000.43,0000.21,18.7,24.8,07.6,05.2,0677.3,30.9
2021-08-17T07:15:00Z,00000200,00000000,0001.16,0000.54,0000.30,0000.11,-000.01,0000.10,-000.21,0000.04,-000.37,18.7,24.8,07.5,05.1,0677.3,30.9
2021-08-17T07:16:00Z,00000200,00000000,0001.01,0000.70,0000.62,0000.34,-000.09,0000.28,0000.00,-000.13,-000.05,18.7,24.8,07.4,05.1,0677.3,30.9
2021-08-17T07:17:00Z,00000200,00000000,0001.05,0000.46,0000.20,0000.89,0000.10,0000.15,-000.18,-000.11,0000.32,18.7,24.8,07.4,05.1,0677.3,30.9
2021-08-17T07:18:00Z,00000200,00000000,0000.75,0000.25,0000.18,-000.24,0000.14,0000.13,0000.29,0000.09,-000.24,18.6,24.8,07.5,05.1,0677.3,30.9
2021-08-17T07:19:00Z,00000200,00000000,0000.88,0000.53,0000.51,0000.59,0000.34,0000.29,-000.31,0000.39,0000.24,18.6,24.8,07.3,05.0,0677.3,30.9
2021-08-17T07:20:00Z,00000200,00000000,0000.82,0000.46,0000.32,0000.40,0000.23,0000.06,0000.23,-000.39,-000.01,18.6,24.8,07.4,05.0,0677.3,30.9
2021-08-17T07:21:00Z,00000200,00000000,0001.54,0000.20,0000.40,0000.63,-000.12,0000.13,0000.18,0000.37,0000.22,18.6,24.8,07.4,05.1,0677.3,30.9
2021-08-17T07:22:00Z,00000200,00000000,0000.66,0000.30,0000.54,0000.19,0000.11,0000.32,-000.06,0000.20,-000.17,18.6,24.8,07.4,05.0,0677.3,30.9
2021-08-17T07:23:00Z,00000200,00000000,0000.72,0000.47,0000.43,-000.01,0000.11,-000.03,0000.19,-000.21,0000.26,18.6,24.8,07.3,05.0,0677.3,30.9
2021-08-17T07:24:00Z,00000200,00000000,0000.79,0000.42,0000.34,0001.13,0000.13,-000.02,0000.03,0000.05,-000.33,18.6,24.8,07.4,05.0,0677.4,30.9
2021-08-17T07:25:00Z,00000200,00000000,0000.94,0000.45,0000.62,0000.13,0000.24,0000.49,0000.05,0000.04,0000.35,18.5,24.8,07.3,05.0,0677.4,30.9
2021-08-17T07:26:00Z,00000200,00000000,0001.07,0000.50,0000.31,0000.44,0000.39,0000.23,0000.24,0000.09,0000.07,18.5,24.8,07.3,05.0,0677.4,30.9
2021-08-17T07:27:00Z,00000200,00000000,0000.24,0000.23,-000.27,0000.76,0000.12,-000.13,-000.22,0000.09,-000.06,18.5,24.7,07.3,05.0,0677.4,30.9
2021-08-17T07:28:00Z,00000200,00000000,0000.89,0000.41,0000.55,0000.01,0000.25,0000.23,0000.52,0000.56,0000.26,18.5,24.7,07.2,04.9,0677.4,30.9
2021-08-17T07:29:00Z,00000200,00000000,0000.89,0000.27,0000.03,0000.51,0000.12,0000.15,-000.09,-000.22,0000.16,18.5,24.7,07.4,05.0,0677.4,30.9
2021-08-17T07:30:00Z,00000200,00000000,0001.19,0000.36,0000.31,-000.61,0000.44,-000.01,0000.27,-000.13,-000.35,18.5,24.7,07.4,05.0,0677.4,30.9
2021-08-17T07:31:00Z,00000200,00000000,0000.90,0000.52,0000.22,0000.01,0000.13,0000.48,-000.32,-000.04,0000.21,18.5,24.7,07.4,05.0,0677.4,30.9
2021-08-17T07:32:00Z,00000200,00000000,0001.75,0000.20,0000.33,0000.24,-000.06,-000.03,0000.38,0000.15,0000.36,18.5,24.7,07.4,05.1,0677.4,30.9
2021-08-17T07:33:00Z,00000200,00000000,0000.60,0000.40,0000.51,0000.66,0000.04,0000.23,-000.01,0000.12,-000.28,18.5,24.7,07.4,05.1,0677.4,30.9
2021-08-17T07:34:00Z,00000200,00000000,0000.72,0000.38,0000.20,0000.79,0000.28,0000.37,-000.06,0000.08,-000.09,18.5,24.7,07.4,05.1,0677.5,30.9
2021-08-17T07:35:00Z,00000200,00000000,0001.36,0000.57,0000.47,0000.07,0000.09,0000.09,0000.23,0000.16,0000.20,18.5,24.7,07.4,05.0,0677.5,30.9
2021-08-17T07:36:00Z,00000200,00000000,0000.99,-000.15,0000.11,0000.01,0000.27,-000.18,0000.14,0000.60,0000.40,18.4,24.7,07.5,05.1,0677.5,30.9
2021-08-17T07:37:00Z,00000200,00000000,0000.49,0000.39,0000.08,0000.22,-000.03,0000.18,-000.12,-000.62,0000.01,18.4,24.7,07.6,05.2,0677.5,30.9
2021-08-17T07:38:00Z,00000200,00000000,0000.62,0000.34,0000.31,0000.50,0000.36,0000.18,0000.31,0000.37,0000.01,18.4,24.7,07.6,05.2,0677.4,30.9
2021-08-17T07:39:00Z,00000200,00000000,0001.49,0000.34,0000.21,0000.61,0000.27,-000.07,0000.47,0000.00,0000.29,18.4,24.7,07.7,05.2,0677.4,30.9
2021-08-17T07:40:00Z,00000200,00000000,0000.59,0000.27,0000.27,0000.30,0000.22,0000.18,-000.24,0000.46,0000.09,18.4,24.7,07.7,05.3,0677.5,30.9
2021-08-17T07:41:00Z,00000200,00000000,0001.29,0000.09,0000.25,-000.27,-000.00,0000.19,0000.37,0000.16,0000.05,18.4,24.7,07.7,05.2,0677.5,30.9
2021-08-17T07:42:00Z,00000200,00000000,0000.92,0000.44,0000.12,0000.24,0000.07,0000.55,0000.08,-000.18,0000.07,18.5,24.7,07.6,05.2,0677.6,30.9
2021-08-17T07:43:00Z,00000200,00000000,0001.00,0000.11,0000.12,0000.33,-000.09,0000.27,0000.16,0000.36,-000.01,18.5,24.7,07.7,05.2,0677.6,30.9
2021-08-17T07:44:00Z,00000200,00000000,0000.62,0000.19,0000.08,0000.48,0000.28,0000.23,-000.04,0000.14,0000.10,18.5,24.7,07.5,05.1,0677.6,30.9
2021-08-17T07:45:00Z,00000200,00000000,0000.70,-000.04,0000.22,-000.21,0000.08,0000.16,-000.16,0000.18,-000.25,18.5,24.7,07.5,05.1,0677.6,30.9
2021-08-17T07:46:00Z,00000200,00000000,0000.48,0000.24,0000.32,0000.13,0000.22,0000.22,0000.36,-000.45,0000.62,18.5,24.7,07.6,05.2,0677.6,30.9
2021-08-17T07:47:00Z,00000200,00000000,0001.64,0000.08,0000.26,-000.16,0000.40,0000.13,-000.16,-000.19,0000.04,18.5,24.7,07.6,05.2,0677.6,30.9
2021-08-17T07:48:00Z,00000200,00000000,0000.88,0000.49,0000.10,-000.34,0000.16,0000.14,0000.37,0000.64,-000.10,18.5,24.7,07.6,05.2,0677.6,30.9
2021-08-17T07:49:00Z,00000200,00000000,0000.58,-000.05,0000.17,-000.10,-000.17,0000.04,-000.52,-000.49,-000.34,18.5,24.7,07.5,05.2,0677.6,30.9
2021-08-17T07:50:00Z,00000200,00000000,0001.07,0000.06,0000.28,0000.66,0000.07,0000.22,0000.27,0000.35,0000.25,18.5,24.7,07.7,05.3,0677.6,30.9
2021-08-17T07:51:00Z,00000200,00000000,0001.15,0000.35,0000.47,0000.24,-000.13,0000.12,0000.20,0000.10,0000.30,18.4,24.7,07.7,05.3,0677.6,30.9
2021-08-17T07:52:00Z,00000200,00000000,0000.68,0000.39,0000.10,0000.13,0000.10,0000.31,0000.37,0000.19,0000.25,18.4,24.6,07.6,05.2,0677.6,30.9
2021-08-17T07:53:00Z,00000200,00000000,0000.98,0000.38,0000.38,0000.16,-000.03,0000.26,0000.05,0000.15,0000.16,18.4,24.6,07.8,05.3,0677.6,30.8
2021-08-17T07:54:00Z,00000200,00000000,0000.60,-000.02,0000.47,0000.02,-000.01,0000.40,0000.12,-000.04,-000.18,18.4,24.6,07.8,05.3,0677.7,30.9
2021-08-17T07:55:00Z,00000200,00000000,0000.70,0000.04,0000.02,-000.28,0000.34,0000.23,0000.19,0000.41,0000.18,18.4,24.6,07.8,05.3,0677.7,30.9
2021-08-17T07:56:00Z,00000200,00000000,0000.81,0000.04,-000.14,-000.32,0000.32,0000.10,0000.11,0000.25,0000.15,18.4,24.6,07.9,05.4,0677.7,30.9
2021-08-17T07:57:00Z,00000200,40000000,,,,,,,0000.16,-000.02,-000.25,18.5,24.7,08.3,05.7,0677.8,30.9
2021-08-17T07:58:00Z,00000200,60000000,,,,,,,0000.07,-000.02,0000.48,18.3,24.8,07.8,05.2,0676.8,30.9
2021-08-17T07:59:00Z,00000200,20000000,,,,,,,-000.07,0000.08,-000.27,18.3,24.9,07.8,05.2,0676.7,30.9
